Location: Unspecified
(46.0725°N, 13.7344°E)
Time: 01:04:44
(UTC+02:00)

CZ-3 Stage 3 - Visible Passes

Search period start: 15 October 2019 00:00
Search period end: 25 October 2019 00:00
Orbit: 422 x 34768 km, 30.5° (Epoch: 13 October)

Date Brightness Start Highest point End Pass type
(mag) Time Alt. Az. Time Alt. Az. Time Alt. Az.
15 Oct 7.8 06:48:08 10° S 06:56:17 11° S 07:01:36 10° SSE visible
18 Oct 7.7 06:32:40 10° S 06:46:11 12° S 06:53:22 10° SSE visible
21 Oct 7.6 06:17:37 10° SSW 06:36:04 13° S 06:44:24 10° SSE visible
24 Oct 7.6 06:02:35 10° SSW 06:25:56 14° S 06:35:05 10° SSE visible
